JCSAT-2A

Last updated on Nov. 16, 2016, 5:19 p.m. UTC

1 27399U 02015A   16321.41196304 -.00000249  00000-0  00000+0 0  9994
2 27399   0.0478 103.6050 0001623 117.4821 131.4790  1.00143751 53524
UTC
Height (km)
Latitude
Longitude
Inclination
Orbital Period
UTC large
Height (km)
Speed (km/s)
/
Latitude / Longitude
Inclination (degrees)
Orbital Period (minutes)
Azimuth
Elevation
Range (km)
Doppler Factor
iOS Compass Heading
iOS Angle

Next 30 passes for location: Hong Kong

Rise time Rise Azimuth (degrees) Set time Set Azimuth (degrees) Duration Max altitude (degrees)

No matching passes for this satellites